GFSSW_prec_cthk_273.txt.gz
RH
14 13 14 16 16 16 15 15 13 13 13 13 14 14 14 14 14 14 13 12 12 13 15 17 17 18 17 15 15 21 28 33 32 32 31 28 28 25 24 23 21 19 18 16 14
15 14 13 15 17 16 16 16 16 15 15 15 15 15 15 14 14 14 12 11 12 13 15 17 17 18 17 17 16 22 29 27 28 28 26 24 23 22 21 19 18 17 16 14 11
17 16 14 14 16 17 17 17 16 16 15 15 15 15 14 15 15 14 11 11 11 13 15 16 16 17 18 17 16 19 23 22 23 22 21 21 21 20 19 18 16 16 14 12 8
18 18 17 15 16 17 17 16 16 16 16 15 14 14 14 15 17 12 11 11 10 12 14 15 16 17 19 18 17 18 19 19 19 19 18 18 17 17 17 16 15 15 13 9 8
19 19 18 17 16 16 16 16 16 16 15 14 13 13 13 14 14 12 11 11 10 10 13 14 16 16 18 16 16 18 17 18 18 17 17 17 17 16 15 15 15 14 12 9 8
18 19 20 19 17 17 16 16 15 16 15 14 13 13 13 13 13 11 11 10 10 10 11 13 15 15 16 16 16 17 17 17 18 18 17 17 15 15 15 16 15 14 11 10 8
18 18 20 19 19 17 17 16 16 16 15 14 13 13 13 12 11 11 10 10 10 11 11 12 13 14 13 15 15 17 17 17 17 18 17 17 16 15 15 16 15 13 12 10 9
18 17 18 20 19 18 18 17 16 16 16 14 13 12 12 12 11 11 10 10 11 11 10 11 11 12 13 14 16 16 17 18 17 16 17 18 19 16 16 16 16 14 13 11 10
19 18 17 18 20 20 18 17 16 16 15 14 14 13 12 12 11 11 10 10 11 11 11 11 11 12 14 16 18 18 18 18 18 17 17 19 19 18 16 17 16 15 14 12 9
21 20 17 17 19 20 20 17 17 17 15 15 14 13 13 12 12 11 11 11 11 11 11 12 12 13 14 16 12 16 17 18 19 18 18 19 20 18 16 17 17 16 15 12 9
20 21 19 17 18 20 21 17 18 17 16 14 15 14 13 13 13 11 11 11 11 11 13 12 14 15 11 11 12 13 14 15 18 18 18 20 19 19 17 17 18 16 15 12 9
20 20 21 18 18 19 21 20 20 19 18 15 15 15 14 14 13 12 12 11 11 12 13 13 14 13 12 12 12 13 14 13 15 17 18 19 19 18 17 17 17 16 13 12 10
19 20 20 20 18 19 21 20 21 19 19 16 15 14 14 13 13 12 12 11 10 11 12 14 13 12 12 13 13 14 13 12 13 15 19 19 19 17 16 17 16 16 13 11 11
20 20 21 21 20 20 21 22 20 19 18 15 15 15 15 14 14 12 13 11 11 11 11 11 11 12 12 13 13 13 14 14 15 17 18 18 20 18 17 16 15 15 12 11 11
21 20 21 21 24 22 22 23 20 20 19 17 16 15 15 15 15 13 13 11 11 12 12 12 12 13 13 13 13 13 14 16 17 20 23 21 22 18 17 17 16 14 11 10 12
21 22 21 22 23 25 23 23 21 22 20 19 19 17 17 15 15 15 13 11 11 12 12 13 12 12 12 13 13 15 17 20 23 24 23 21 21 19 18 15 14 12 11 9 13
25 22 22 23 24 26 25 23 23 25 19 21 20 20 19 17 15 14 14 13 12 12 14 14 14 14 14 14 14 15 18 19 14 20 20 22 19 18 15 14 13 11 9 8 15
30 23 22 23 23 26 27 26 27 20 22 23 21 20 21 18 17 15 15 16 12 13 16 16 15 15 13 13 13 15 17 20 13 17 20 19 18 14 13 13 11 9 8 9 16
38 28 24 23 24 26 28 31 24 24 24 23 23 23 23 21 18 16 16 16 13 12 12 17 16 15 14 13 14 15 17 16 20 24 28 23 18 15 13 13 11 9 8 9 15
38 36 27 25 24 27 29 29 24 23 24 25 26 23 24 24 21 18 17 15 15 13 12 14 14 16 16 15 14 14 16 17 23 21 18 19 17 17 14 13 12 10 8 9 14
39 36 31 27 27 28 32 29 27 24 24 26 27 28 25 26 24 21 18 17 15 14 13 13 13 16 17 16 16 15 16 20 21 24 29 24 18 14 13 13 12 10 8 8 13
37 37 35 31 30 31 31 29 27 27 27 27 26 28 28 28 26 24 20 18 17 14 13 13 15 18 17 17 17 17 17 18 31 24 32 37 24 14 12 12 11 10 8 8 12
36 36 35 35 35 32 29 29 29 30 29 29 26 27 29 28 26 25 23 22 20 17 15 14 16 16 15 19 19 19 18 20 25 30 31 34 21 15 13 12 11 10 8 7 11
37 38 37 37 35 33 30 30 31 31 31 31 28 26 29 31 29 28 26 24 21 20 19 16 18 15 18 14 21 19 19 20 20 32 32 28 17 17 13 13 11 10 9 8 10
40 39 36 40 37 36 35 32 32 33 33 32 30 28 28 32 32 30 28 26 23 22 19 18 17 19 19 20 21 20 20 21 21 19 22 18 20 18 16 12 9 9 8 8 9
40 40 40 39 37 37 39 36 35 34 34 35 34 33 30 30 31 32 30 27 24 24 21 21 19 20 18 17 20 21 21 20 20 18 22 21 18 15 15 12 9 8 8 8 8
43 42 41 40 41 39 39 37 38 37 37 36 38 40 35 31 31 32 31 28 25 24 24 23 23 24 19 23 20 20 18 19 18 16 16 19 15 14 15 13 9 7 7 7 7

GFSSW_prec_cthk_276.txt.gz
RH
16 14 14 15 16 15 15 14 13 12 12 13 14 14 14 14 14 14 13 12 12 14 15 16 17 18 17 15 16 20 26 31 27 27 28 25 26 25 24 23 21 20 18 17 15
17 16 15 15 16 16 16 16 15 15 14 15 15 14 14 14 14 14 12 11 12 13 14 16 16 17 16 16 15 21 28 26 26 26 25 23 22 22 21 20 18 17 17 15 12
18 17 17 15 15 16 16 16 16 16 15 15 15 14 14 14 15 14 11 11 11 13 14 15 16 17 18 17 16 18 22 22 22 22 20 20 20 20 18 18 18 17 16 13 8
18 18 17 18 16 16 17 16 16 16 16 15 14 14 14 14 17 12 11 11 10 12 14 15 16 17 18 18 16 17 19 19 18 18 18 18 17 17 17 17 16 16 14 11 8
17 18 19 18 18 16 16 16 16 16 16 14 14 13 14 13 14 12 11 10 10 10 12 14 15 16 18 17 16 17 18 17 17 18 18 17 17 16 16 16 16 15 14 10 10
18 18 19 19 18 18 16 16 15 15 15 14 14 13 14 14 13 12 11 10 10 10 11 13 14 15 16 16 16 16 17 16 17 17 18 17 17 16 15 15 16 15 13 12 11
19 17 18 19 19 18 18 16 15 15 15 15 14 13 14 13 12 11 11 10 10 11 11 12 13 14 14 14 15 17 18 16 17 17 17 16 17 16 15 15 16 15 14 14 11
19 18 17 17 18 18 19 18 16 16 15 15 14 13 12 13 12 11 11 10 11 11 10 11 12 12 13 14 15 16 17 18 16 17 17 18 19 16 15 15 16 16 15 14 12
18 19 19 17 18 18 19 18 16 16 16 15 14 13 12 13 12 11 11 10 11 11 11 11 11 12 14 16 18 19 18 18 18 17 17 19 19 17 15 15 16 16 16 14 13
18 19 18 18 18 18 18 19 17 17 16 15 14 13 12 12 12 12 12 11 11 11 11 12 12 14 15 15 13 14 18 17 19 18 17 19 19 17 15 15 16 16 16 14 12
19 18 19 18 18 18 19 18 18 18 17 15 14 14 13 14 13 13 12 12 11 11 12 12 14 15 13 13 13 14 15 15 17 18 18 20 18 17 16 15 16 16 16 13 11
20 19 18 18 19 19 19 19 19 19 18 17 15 15 14 14 13 13 12 12 12 12 12 13 14 13 13 13 13 14 15 14 15 17 18 20 19 17 17 16 16 16 15 13 11
20 20 19 19 18 21 20 20 20 20 19 18 17 15 15 14 13 13 12 13 11 11 13 14 13 13 13 13 13 14 14 13 12 16 19 19 18 16 16 16 16 15 14 12 12
21 20 21 19 20 21 23 22 21 19 19 16 16 16 15 14 14 13 13 13 11 11 12 12 12 12 13 14 14 12 14 14 15 17 20 18 17 16 15 16 15 14 12 12 12
24 21 21 20 21 22 23 23 21 20 21 17 17 16 16 15 15 14 14 14 12 12 13 12 12 12 13 14 13 13 14 17 17 19 22 20 21 16 16 16 15 12 11 11 12
26 22 20 21 21 23 24 24 22 21 21 19 19 18 17 16 16 16 14 14 11 12 13 13 13 12 13 13 14 15 17 20 23 24 21 21 20 16 17 15 13 11 10 10 11
30 24 22 22 22 23 25 24 24 23 19 21 20 20 20 18 17 16 15 15 13 12 13 14 14 13 13 14 14 15 17 19 15 18 17 22 20 16 14 14 13 10 9 9 10
35 29 24 23 23 24 25 26 24 21 22 22 22 21 21 21 19 18 16 16 15 14 16 16 14 15 14 13 13 15 17 20 14 17 18 19 17 12 12 13 11 9 8 8 10
35 36 26 24 24 24 26 29 24 25 23 23 23 22 22 22 22 19 18 17 15 14 12 16 16 14 14 14 14 15 16 16 21 25 26 20 17 14 12 13 11 9 8 8 10
38 37 34 26 24 25 28 27 24 23 25 24 24 23 24 24 24 22 20 16 16 15 13 14 13 15 15 15 14 15 15 17 22 21 17 18 17 15 13 13 12 9 8 8 10
40 37 35 32 27 27 31 27 24 24 25 26 26 26 26 26 25 25 21 18 17 16 15 13 13 15 16 17 16 15 15 20 21 24 30 24 17 14 12 13 12 9 7 7 8
41 39 34 36 33 32 29 27 25 25 25 27 28 27 28 29 28 27 25 22 20 17 15 14 15 16 16 17 17 16 16 19 30 23 33 37 22 14 12 12 12 10 7 6 7
41 37 34 37 38 35 30 27 26 26 27 28 29 30 29 29 28 27 25 26 23 20 17 16 17 16 14 18 19 18 18 21 25 28 30 33 20 14 13 12 12 10 8 6 7
39 39 35 35 36 35 32 29 28 26 27 28 29 30 31 29 29 28 28 28 26 23 22 19 19 16 18 13 20 19 19 22 20 32 31 26 17 15 14 13 12 10 8 7 6
43 40 35 38 36 36 36 32 31 29 28 28 30 31 31 32 30 30 30 29 28 28 24 22 20 20 19 18 19 19 20 23 22 18 20 17 20 14 14 14 11 9 8 7 7
43 41 38 37 37 38 39 36 34 32 30 29 30 31 33 33 31 30 32 31 28 29 26 26 22 22 19 18 21 21 21 21 21 19 19 18 18 15 14 14 11 8 7 7 7
44 41 40 41 39 39 38 36 35 36 35 31 30 33 35 35 35 33 30 31 29 29 28 27 27 26 21 24 23 19 18 20 19 17 16 18 14 14 14 14 12 8 6 6 6

GFSSW_prec_cthk_279.txt.gz
RH
16 15 14 15 15 15 14 13 12 12 12 12 13 14 14 14 14 14 13 12 12 14 15 17 17 18 17 15 15 18 23 26 25 25 24 23 24 24 23 22 22 21 20 17 16
18 16 16 15 15 15 16 15 14 13 13 14 14 14 14 14 14 14 12 11 12 13 14 16 16 17 16 16 15 20 24 24 23 23 23 21 21 20 20 21 20 18 17 16 13
17 18 17 16 16 16 16 16 15 15 15 14 14 14 14 14 14 14 11 11 11 13 14 15 16 16 17 16 15 16 21 20 20 21 20 19 18 19 19 19 18 16 16 14 9
18 18 19 18 17 16 16 16 15 15 15 15 14 14 14 14 16 13 11 10 10 12 14 15 15 15 17 18 16 17 18 18 17 17 17 18 17 18 17 17 16 15 15 13 10
18 19 19 19 18 17 16 16 16 16 15 15 14 13 13 13 14 13 11 10 10 10 12 14 15 15 17 17 16 16 17 16 16 17 17 17 17 17 17 15 14 15 14 13 11
20 20 19 19 19 19 18 16 16 16 15 14 14 13 13 13 13 12 11 10 10 10 11 12 13 14 16 16 15 16 17 16 16 17 17 18 17 18 15 14 14 15 14 13 12
19 19 18 18 18 19 19 18 16 16 16 15 14 12 13 13 12 11 11 10 10 11 11 12 13 13 14 14 15 16 17 16 16 17 17 16 17 17 14 14 14 15 15 14 13
18 19 18 19 18 18 19 19 17 16 16 15 14 13 12 13 12 11 11 11 11 11 11 11 12 11 13 14 16 17 17 17 16 16 17 17 18 16 14 14 14 15 16 15 13
19 18 18 17 19 18 18 19 19 17 17 16 15 13 13 12 13 11 11 11 11 12 11 11 11 12 14 16 17 19 17 18 17 16 17 18 18 16 14 14 14 16 16 16 13
19 19 18 18 17 19 19 18 18 17 17 16 15 14 13 13 13 12 12 12 11 12 12 12 11 13 15 14 14 13 17 17 17 17 17 18 17 16 14 14 15 15 16 15 13
18 19 18 18 18 18 19 18 17 18 18 17 15 15 14 14 14 13 13 12 12 12 12 12 13 14 13 14 14 14 15 15 16 17 17 18 17 16 15 15 15 14 15 15 12
20 19 19 18 18 18 19 19 18 19 19 18 17 15 15 14 14 14 13 12 12 12 12 13 14 12 13 14 14 15 15 15 15 17 17 18 17 16 16 15 15 14 14 14 13
23 20 19 19 18 18 19 21 19 19 19 18 18 17 16 15 15 14 14 13 13 12 12 14 13 13 14 14 14 14 14 14 12 15 18 17 15 15 14 15 15 13 13 13 13
25 22 20 20 19 20 21 21 21 18 19 16 17 17 16 15 15 14 14 14 13 11 12 12 12 13 14 14 14 13 14 15 15 16 17 17 14 15 14 14 14 12 12 12 12
29 24 22 20 21 22 22 22 21 21 21 18 17 17 18 17 15 15 15 15 14 12 12 12 12 12 14 15 14 13 15 17 18 18 20 18 16 13 15 14 13 11 11 11 11
32 27 22 22 21 23 24 23 22 21 21 19 19 18 18 18 17 16 16 15 15 13 12 13 12 12 13 14 14 15 17 20 23 22 16 20 17 12 14 13 11 10 9 10 11
35 30 24 22 22 23 24 24 23 22 19 21 21 21 20 19 18 17 16 16 15 13 12 13 13 13 13 14 15 15 16 18 15 18 14 21 18 13 12 13 11 9 8 9 9
36 35 29 23 23 24 26 25 23 20 20 21 22 22 22 21 21 20 18 17 16 15 17 14 13 14 14 14 14 14 16 18 13 16 17 19 17 11 11 12 11 8 7 8 8
38 36 35 24 24 24 27 28 24 23 22 23 22 22 23 23 22 22 20 19 16 16 14 15 15 14 13 14 14 15 16 15 19 24 23 17 15 14 12 12 11 8 6 6 7
39 37 35 30 25 25 29 29 23 22 23 23 24 23 24 25 25 24 22 20 19 17 15 15 13 15 14 14 15 16 16 16 20 21 16 16 15 14 12 12 11 8 6 6 7
41 39 34 34 28 28 32 28 24 22 24 24 24 25 25 26 26 26 23 21 20 18 17 16 14 14 16 16 17 16 15 18 20 22 23 20 15 12 11 11 11 8 5 5 6
42 41 34 33 34 32 31 27 25 24 24 24 25 26 28 27 28 28 27 25 23 20 19 16 16 16 15 16 16 16 16 18 29 22 27 30 20 13 12 10 10 10 6 5 6
44 41 36 35 37 36 33 29 27 26 26 26 27 27 28 30 29 29 29 29 27 24 21 19 18 16 14 17 18 18 18 21 25 26 28 30 19 14 12 11 10 10 8 5 5
43 43 40 36 33 33 34 32 30 27 27 27 27 27 28 29 31 30 30 29 29 27 25 22 22 19 19 15 18 18 20 23 21 28 28 22 16 16 14 12 11 10 9 7 5
48 45 39 39 35 32 32 33 33 32 28 27 28 27 28 30 30 32 32 30 30 33 30 27 24 23 21 19 19 18 18 22 24 19 20 15 18 14 15 13 12 10 8 7 6
52 46 43 37 35 35 35 33 33 33 32 30 30 28 29 30 28 31 33 32 30 32 32 32 28 27 23 22 24 23 22 20 20 19 19 17 15 13 14 13 13 11 9 7 6
51 47 43 43 39 36 35 33 33 36 36 33 32 31 30 30 30 29 31 33 32 32 32 33 32 30 26 25 24 22 19 20 19 18 16 17 12 13 14 15 14 13 9 6 5

GFSSW_prec_cthk_282.txt.gz
RH
18 16 16 16 16 15 15 13 13 13 13 12 13 13 14 14 14 14 13 12 12 13 15 17 18 18 17 15 15 18 20 20 22 22 23 22 24 24 24 23 22 21 21 18 16
18 18 17 17 16 16 16 15 14 13 12 13 14 14 14 14 14 14 12 11 12 13 14 17 17 17 16 16 15 18 18 22 21 21 21 20 20 20 20 20 20 19 17 16 15
18 18 19 17 17 16 16 16 16 15 15 14 14 14 13 14 14 14 11 11 11 13 14 16 16 15 16 15 14 15 19 19 19 20 19 18 18 18 19 20 17 16 15 16 14
19 19 18 19 18 17 16 17 16 16 15 15 14 14 14 14 16 14 11 10 10 12 14 15 15 16 16 16 14 15 17 17 17 18 18 17 17 17 18 17 15 15 15 15 13
19 19 19 19 19 18 17 16 16 16 16 15 14 14 13 13 13 13 11 10 10 10 13 15 15 15 16 15 14 15 16 16 16 17 17 17 17 18 16 15 14 14 15 14 13
17 18 19 19 18 19 18 17 16 15 16 15 14 13 13 13 13 13 11 11 10 10 11 13 14 15 15 14 14 16 16 16 16 16 17 17 17 17 16 14 13 14 15 15 15
17 18 17 18 18 17 18 18 17 16 15 15 14 13 13 14 13 12 11 10 10 11 11 12 13 14 13 13 14 16 16 16 16 16 16 17 17 16 14 14 13 14 15 15 16
18 18 18 17 18 18 17 18 18 16 16 16 15 14 13 13 13 12 11 11 11 11 12 12 12 12 12 13 15 16 16 16 15 15 16 16 17 15 13 13 13 14 16 16 16
19 19 18 18 17 18 19 17 18 17 16 16 15 14 13 13 13 12 12 11 11 11 11 11 11 12 13 14 15 16 13 14 16 15 16 16 16 14 13 13 14 14 15 16 16
18 18 19 18 17 17 18 19 18 16 17 17 16 15 14 13 13 13 13 12 12 12 12 12 11 12 14 14 13 12 13 13 13 15 15 16 15 14 13 13 14 13 13 15 15
20 18 18 18 17 17 18 19 18 17 18 17 15 15 14 14 13 13 13 13 12 12 12 11 12 13 12 14 13 13 13 13 14 16 15 15 14 14 13 13 13 12 12 13 14
21 19 18 18 18 18 19 19 19 19 19 19 17 16 15 15 14 14 13 13 13 13 11 12 12 12 12 14 14 14 13 13 13 15 14 14 13 12 13 13 13 12 12 12 13
24 20 19 18 18 18 19 20 19 19 19 18 18 17 16 16 15 15 14 14 13 13 11 12 12 11 13 14 14 14 14 13 12 13 14 14 12 12 12 14 12 11 11 11 11
29 22 20 19 19 19 20 20 20 18 18 17 18 18 17 17 16 15 15 15 14 13 12 12 11 12 13 14 14 14 14 14 15 14 13 14 10 12 11 11 11 10 9 10 10
32 25 21 20 20 20 20 21 20 19 18 17 18 18 18 17 17 16 16 16 15 14 12 12 11 12 13 14 14 14 15 16 18 15 15 15 12 10 11 10 9 8 8 9 9
32 30 23 21 20 21 21 21 20 19 19 18 19 19 18 17 17 17 16 16 16 15 14 12 12 12 13 13 13 15 16 18 19 18 15 15 13 9 10 9 8 7 7 8 8
33 33 28 22 21 21 22 21 20 20 17 18 20 20 21 20 18 17 17 17 16 16 14 12 12 12 12 13 15 14 15 16 16 17 14 16 14 9 9 10 8 7 6 7 7
32 34 32 24 22 22 22 21 22 19 18 20 20 21 20 21 20 20 18 17 17 16 15 13 12 13 13 13 14 14 15 15 17 14 15 16 14 11 9 9 9 7 6 6 7
31 36 36 29 24 22 24 24 20 19 19 20 21 20 21 22 22 21 20 19 17 17 16 14 14 13 13 12 13 15 15 15 15 18 17 15 11 11 9 9 9 7 6 6 6
32 37 36 35 27 24 25 24 22 21 21 21 22 21 21 23 24 23 22 20 19 18 17 16 14 14 13 13 14 15 15 16 16 27 17 13 14 10 11 9 9 7 6 6 6
35 39 36 37 31 28 27 25 23 22 22 22 22 23 23 23 23 24 22 22 20 20 18 18 16 17 15 15 14 15 15 16 17 17 18 15 12 12 10 9 9 8 6 5 6
37 39 38 37 37 33 28 25 23 22 24 23 22 22 24 25 25 26 26 25 24 22 21 19 17 15 15 15 15 14 14 15 20 23 19 24 17 12 12 10 9 9 7 5 6
40 38 37 38 40 36 32 28 26 25 24 25 25 23 24 26 28 28 29 30 28 24 23 22 19 17 16 17 17 17 16 16 20 21 23 26 15 12 13 12 11 10 9 7 5
41 40 41 40 39 37 35 31 29 27 25 26 26 26 25 26 28 28 28 31 30 28 27 25 24 21 21 18 19 19 18 18 17 24 22 17 13 13 13 14 12 11 10 9 6
43 42 40 44 41 38 35 32 30 30 28 27 27 26 25 27 28 29 30 30 31 33 30 29 27 26 24 22 22 20 19 20 21 16 19 14 16 13 13 14 14 12 11 9 8
47 45 43 43 42 42 41 34 30 30 29 28 28 27 26 26 25 27 29 30 29 32 31 30 30 28 26 26 25 24 21 20 19 18 17 17 15 13 12 12 13 13 13 10 8
50 47 42 47 45 43 39 34 30 29 30 29 28 29 29 27 27 27 28 29 29 30 32 33 31 31 28 27 28 26 21 21 19 18 16 16 12 12 12 12 12 13 14 12 9

GFSSW_prec_cthk_288.txt.gz
RH
17 17 16 16 15 15 13 12 12 13 13 13 12 13 13 13 13 13 14 11 11 12 14 17 18 18 18 17 16 17 29 36 31 25 25 23 20 21 22 21 20 18 16 17 17
17 17 17 16 16 15 15 13 12 12 12 12 13 13 13 13 14 15 14 11 11 12 14 18 25 21 23 19 17 18 28 29 26 19 21 19 19 18 18 16 16 16 16 16 13
18 18 17 17 16 16 15 15 14 13 12 12 13 13 13 14 16 14 14 11 10 12 14 18 21 18 21 19 16 17 22 22 18 17 18 18 17 17 16 16 14 13 15 14 13
19 19 18 18 17 17 16 15 15 14 14 14 13 13 13 16 19 16 14 11 10 11 14 17 18 21 21 18 15 17 17 17 16 16 16 17 16 15 16 16 15 13 13 13 12
17 17 17 19 18 17 17 16 15 15 14 14 14 13 13 15 14 12 13 11 10 10 15 17 19 20 20 17 15 16 15 16 15 14 15 16 16 15 14 15 14 13 13 12 12
16 16 16 16 17 17 16 17 16 15 14 14 14 13 13 14 14 12 12 11 10 11 13 14 16 16 15 14 15 15 15 16 14 14 15 15 14 14 13 13 12 12 12 11 12
17 17 16 16 16 17 16 16 17 16 14 14 14 13 13 14 13 12 11 11 10 11 12 12 12 13 14 13 13 14 16 15 14 13 14 14 16 14 12 12 11 11 11 11 12
16 17 17 16 16 15 16 16 16 16 15 15 14 13 14 12 12 12 12 11 10 11 11 12 12 11 12 12 14 15 19 21 17 15 13 13 17 15 12 11 10 10 10 11 12
16 16 16 16 16 15 16 16 17 16 16 16 15 14 14 13 12 12 12 12 11 11 11 11 11 11 11 15 21 21 18 18 18 15 14 13 15 13 12 10 10 10 9 10 11
18 16 15 16 16 15 16 16 16 16 15 16 16 15 14 14 13 13 12 12 13 12 13 13 12 15 17 16 21 17 14 14 15 15 14 13 12 12 11 10 10 9 9 9 10
22 17 16 15 16 16 16 17 18 18 16 17 16 16 15 13 13 13 13 13 13 13 14 14 12 18 16 14 13 13 13 14 16 14 13 12 12 11 10 10 9 9 8 8 9
26 21 17 16 16 16 18 19 19 20 19 17 16 15 15 15 14 14 13 13 14 15 15 14 17 15 12 11 13 14 14 16 16 14 13 11 10 10 10 10 9 8 8 8 8
25 26 19 17 17 17 19 19 18 17 17 18 17 17 17 16 15 15 14 14 14 15 15 14 13 13 11 12 13 14 15 15 14 14 13 14 14 10 9 10 9 8 8 8 7
25 26 22 18 19 18 20 19 18 17 18 19 17 17 17 17 17 16 15 15 14 14 15 14 12 11 11 12 13 15 15 14 15 17 19 15 18 13 9 9 9 8 7 7 7
23 27 24 21 22 21 21 19 18 18 25 19 16 16 16 18 19 16 15 15 15 14 14 16 14 12 12 12 12 14 14 14 16 18 19 17 17 14 12 10 8 8 7 6 6
23 27 26 23 21 20 20 19 19 24 23 18 16 16 16 17 17 17 16 16 16 15 14 15 13 12 11 11 11 12 14 16 20 20 27 22 16 16 13 8 7 7 6 6 6
24 27 29 24 26 22 21 21 25 23 20 18 17 16 17 18 17 18 18 18 17 19 19 17 15 12 11 11 13 13 16 27 34 32 30 18 17 15 11 8 6 6 5 5 6
26 28 30 27 24 23 24 24 28 22 19 18 18 18 18 17 18 18 18 20 19 18 17 17 20 17 12 11 13 13 14 21 25 29 23 16 19 16 13 9 7 6 5 5 6
27 29 32 31 25 25 27 28 22 22 20 19 19 18 19 17 18 18 19 20 19 20 19 18 20 15 14 12 11 14 16 15 17 16 22 20 17 14 13 12 10 8 6 5 5
28 34 38 34 29 27 30 28 25 24 23 20 21 20 21 21 19 19 19 19 19 19 19 19 19 17 16 15 13 12 14 18 22 36 31 20 17 18 15 12 13 12 9 7 5
30 34 37 37 34 31 32 27 25 26 24 23 22 23 20 23 21 21 19 20 18 18 18 19 19 21 19 18 19 16 15 14 15 19 30 29 22 14 15 12 12 13 13 11 8
37 36 39 40 38 34 34 28 28 30 27 25 24 24 22 23 22 22 22 22 20 19 20 20 21 22 20 19 17 16 16 15 31 25 21 35 25 14 13 12 12 13 13 14 13
38 39 41 42 44 40 36 34 34 32 30 28 26 25 24 23 25 23 24 25 23 23 23 22 22 24 25 25 21 19 17 16 20 24 28 37 25 13 14 15 15 15 14 13 14
42 42 42 42 40 42 42 40 37 34 32 30 29 27 26 25 24 26 26 26 25 25 24 22 24 24 29 27 26 25 25 22 22 38 32 25 16 14 16 17 16 15 14 14 13
42 42 45 46 41 41 41 41 40 39 36 32 32 30 29 29 25 26 26 27 25 26 25 25 27 26 25 25 25 26 26 27 27 23 24 18 19 16 16 15 14 13 14 14 13
49 44 45 46 47 44 43 39 39 37 36 35 34 33 31 30 27 27 28 29 28 28 28 26 29 26 25 26 26 24 24 24 26 23 23 22 20 18 16 15 14 13 12 13 13
50 49 45 45 43 45 46 42 40 37 37 37 37 37 36 34 31 29 29 28 30 30 29 29 30 30 30 26 26 28 22 23 23 23 24 25 21 20 18 16 14 14 13 12 13

GFSSW_prec_cthk_291.txt.gz
RH
17 17 16 15 14 14 12 12 12 12 12 12 11 12 12 13 13 13 13 11 10 12 14 16 19 17 18 17 15 17 32 37 33 31 25 21 21 19 19 19 18 17 16 16 16
17 16 17 16 15 14 14 12 12 12 12 12 12 12 12 12 13 13 12 11 10 12 14 20 21 19 19 18 15 17 29 29 29 25 19 18 17 17 17 16 15 15 15 15 12
18 18 17 17 16 15 14 14 13 12 12 12 12 12 12 13 15 14 13 11 10 12 14 16 19 17 19 19 17 17 21 20 19 17 16 17 17 16 14 14 14 14 14 12 11
18 18 19 18 17 16 16 15 15 14 13 13 13 12 13 16 17 13 13 11 9 11 13 15 17 20 21 19 15 17 18 17 16 15 15 16 14 15 14 13 13 14 12 11 10
16 16 16 17 18 17 17 16 15 15 14 14 13 13 13 14 14 12 12 11 10 10 14 15 17 18 20 17 16 17 16 15 14 14 14 14 14 13 13 13 12 12 12 10 10
17 16 16 15 16 16 16 16 16 14 14 14 13 13 13 14 14 12 11 10 10 11 12 13 14 14 15 15 14 15 15 15 13 13 14 14 13 13 13 12 12 11 11 10 10
16 16 16 15 15 15 15 15 16 15 14 14 13 13 12 13 13 12 11 11 10 11 11 12 12 11 12 13 13 14 17 17 15 14 13 13 13 14 12 11 11 11 10 10 9
16 16 16 16 15 15 15 15 15 16 15 15 14 13 13 13 12 12 12 11 11 11 11 11 11 10 11 12 15 18 19 21 17 15 14 12 13 13 12 11 10 10 9 9 9
17 16 15 15 15 15 15 15 15 16 15 16 15 14 14 13 12 12 12 12 11 11 11 10 10 10 11 16 21 21 20 20 17 15 14 12 12 11 11 11 10 9 8 8 9
20 16 15 15 15 15 15 16 16 15 14 15 15 15 15 13 12 12 12 12 12 12 13 13 13 15 17 17 19 17 16 14 18 15 14 13 11 10 10 10 10 8 8 8 8
25 20 16 15 15 15 16 17 18 18 15 16 16 15 15 14 13 12 12 12 12 13 14 14 14 16 14 13 13 13 14 14 17 16 14 12 11 10 10 10 10 9 7 7 7
25 25 18 16 16 16 17 18 19 20 18 17 16 15 15 15 15 14 13 13 13 14 14 14 15 14 13 11 11 13 14 15 16 16 14 12 10 8 9 8 9 9 7 7 7
24 25 21 17 17 18 19 19 18 17 17 17 17 15 16 16 15 15 14 14 14 14 14 15 13 12 11 10 12 13 14 14 14 15 15 15 13 10 8 8 9 8 7 7 7
23 24 24 20 19 19 20 19 19 17 19 19 17 16 16 16 16 16 15 15 14 14 14 15 14 12 10 11 11 12 13 14 14 17 19 17 16 12 10 9 8 8 7 7 6
22 22 25 21 23 22 23 20 19 19 26 20 17 16 16 17 18 17 16 15 15 16 14 15 15 14 12 11 11 12 13 13 15 18 18 19 21 13 13 11 9 7 7 6 6
22 22 25 22 22 22 22 21 20 25 28 20 16 15 15 16 16 16 16 16 16 16 15 15 14 14 13 11 10 11 13 15 20 22 27 23 20 16 16 11 8 7 6 6 5
23 23 26 23 23 23 23 22 26 27 22 21 18 17 17 17 17 17 17 17 18 19 20 18 17 14 14 12 12 12 16 27 31 31 28 19 19 15 13 13 9 7 6 6 5
24 24 28 25 24 23 24 26 28 26 23 21 19 19 19 18 17 18 18 20 19 19 20 21 20 18 15 13 14 13 14 24 17 26 24 18 18 13 13 12 12 10 8 6 5
26 26 29 29 26 25 26 32 27 24 23 23 21 21 20 18 18 18 18 19 18 19 19 20 21 18 15 13 14 16 15 15 16 20 23 21 18 15 14 13 12 11 12 11 8
27 29 32 32 29 27 31 31 26 26 25 24 22 22 24 23 21 20 20 19 19 19 18 18 19 19 18 16 15 15 16 18 23 22 26 23 19 18 16 14 13 12 12 13 12
30 32 33 33 31 30 36 31 27 28 26 26 25 25 24 25 24 23 22 21 20 18 18 18 18 20 19 20 20 17 17 17 19 27 26 27 16 13 14 14 12 12 13 13 13
35 37 38 37 35 33 34 30 27 29 29 27 26 25 25 25 26 24 23 24 21 20 20 20 22 23 21 20 19 18 17 18 33 23 26 37 21 12 13 13 14 14 15 15 14
37 38 39 41 42 40 34 32 31 32 32 31 29 27 26 26 28 26 26 25 23 23 23 23 22 25 24 23 22 20 19 19 23 31 30 37 22 13 12 13 13 14 14 15 14
39 43 41 42 41 40 40 37 36 35 35 33 31 29 28 28 27 27 28 27 25 24 24 24 25 25 30 26 25 23 24 25 24 38 31 31 21 15 16 17 16 14 14 13 14
42 42 42 45 43 43 41 40 40 42 41 37 34 32 30 31 29 29 29 27 26 24 24 25 25 25 26 26 26 23 25 26 25 23 27 20 26 19 21 19 17 16 15 14 13
46 44 46 46 44 42 44 42 40 42 41 41 37 35 33 34 33 31 32 33 31 30 27 26 27 27 27 26 28 25 24 24 24 21 22 21 21 21 22 20 19 17 15 14 13
49 51 49 47 47 48 46 42 40 38 40 40 39 38 37 35 34 33 33 33 33 32 31 31 32 33 33 28 28 26 21 21 20 20 20 23 19 20 21 22 21 18 17 16 15

GFSSW_prec_cthk_297.txt.gz
RH
16 16 15 15 14 12 11 11 11 12 12 11 11 12 12 12 12 12 11 10 10 12 15 16 16 16 15 14 14 20 29 31 28 29 26 23 20 19 17 16 16 16 15 14 13
16 16 15 15 14 14 12 12 12 12 12 11 11 11 12 12 13 12 11 10 10 12 15 18 18 16 16 16 15 17 28 23 22 22 22 19 18 17 16 16 15 14 13 12 11
17 17 16 16 15 14 14 12 12 12 11 12 12 11 12 12 14 13 11 10 10 12 15 16 16 16 16 15 15 15 18 16 16 16 16 16 16 15 15 14 12 12 11 11 10
17 18 19 18 16 15 14 14 13 11 11 12 12 12 12 15 15 12 11 10 10 12 13 15 16 17 17 16 16 15 15 15 14 14 14 15 14 13 13 12 11 11 11 10 8
15 16 16 17 18 17 15 14 14 13 13 13 12 12 14 15 13 12 11 10 9 11 13 15 14 15 16 16 16 15 14 13 13 14 14 13 12 12 12 11 11 11 10 8 7
15 15 15 15 16 17 16 16 15 14 14 13 13 12 13 13 13 12 10 10 10 11 12 13 14 14 14 15 15 15 15 13 13 13 13 12 12 11 11 10 10 10 9 8 7
15 15 15 14 14 14 14 15 16 15 14 14 13 12 12 13 13 12 11 10 11 11 12 13 12 12 12 12 14 15 17 16 15 13 13 12 11 10 10 10 10 9 8 8 7
15 14 14 15 14 14 14 15 15 15 16 14 13 13 13 12 12 11 11 11 11 11 11 11 11 10 11 11 16 18 18 18 16 15 13 12 10 9 9 10 10 9 8 7 7
16 14 14 14 14 14 14 14 14 14 14 15 14 14 13 13 12 11 11 11 10 11 11 11 10 10 10 15 17 20 17 17 17 15 14 13 11 10 9 9 9 9 8 7 7
22 16 14 14 14 14 15 15 14 14 14 14 14 14 14 13 12 12 11 11 11 11 13 13 13 15 15 16 17 16 14 14 16 16 15 14 12 10 9 8 9 9 8 7 6
24 21 15 15 15 15 15 15 15 14 14 14 14 15 15 14 13 12 12 12 11 12 14 14 14 15 13 14 13 12 13 14 14 16 17 16 13 10 9 9 8 8 8 7 6
22 23 18 15 16 16 16 16 17 16 15 15 14 14 14 14 14 14 13 12 13 14 14 14 15 14 13 12 12 11 13 14 14 16 17 16 13 9 9 7 7 7 7 7 7
20 23 21 17 18 18 18 17 17 16 16 16 15 15 14 14 14 14 14 14 13 14 14 15 14 13 13 11 10 11 11 12 13 14 14 16 14 11 9 8 7 6 6 7 6
19 22 23 19 20 19 19 18 17 16 17 17 17 16 15 15 15 15 15 14 15 14 15 15 14 13 13 12 11 11 11 12 12 14 14 15 14 12 13 11 8 6 6 6 6
21 21 24 20 21 21 20 19 18 17 21 19 17 16 15 16 16 16 15 15 15 15 15 14 14 14 14 14 13 12 11 11 13 16 18 17 19 14 13 13 12 9 7 5 5
22 21 24 21 22 22 22 21 20 21 20 20 17 16 15 16 16 16 15 15 15 16 16 16 15 15 15 14 13 13 13 16 20 21 19 17 18 19 13 13 13 11 9 8 8
23 22 23 22 23 22 22 22 23 25 22 21 19 17 17 17 17 16 16 15 16 16 17 17 17 16 16 16 16 15 17 18 17 30 18 20 21 18 14 13 13 12 11 10 10
22 21 23 23 23 23 23 24 26 23 23 21 20 19 19 19 19 19 19 18 17 17 20 19 17 17 16 15 17 17 17 20 14 20 21 16 17 11 10 11 11 11 11 10 11
24 23 24 25 25 24 25 25 21 25 23 23 23 23 22 21 20 21 20 20 19 19 19 19 19 17 17 15 15 18 17 18 20 24 29 20 15 12 11 12 12 11 10 11 12
25 26 28 28 26 25 27 26 24 25 25 24 25 24 24 23 22 23 22 20 20 20 20 19 19 18 17 16 17 17 18 20 23 20 20 20 20 18 12 11 11 11 11 12 13
27 29 31 32 28 27 30 27 25 25 26 26 26 27 26 26 25 25 24 22 22 22 21 21 21 20 20 19 18 18 18 20 23 29 26 23 17 15 14 13 12 13 13 12 13
30 32 35 34 31 32 31 27 24 25 27 28 27 27 27 28 28 28 27 25 24 23 23 23 23 23 21 21 20 19 19 20 30 19 30 38 26 12 14 15 15 15 16 15 15
31 32 36 35 37 36 32 29 26 26 28 29 29 29 29 29 30 30 29 28 27 26 25 24 26 27 24 24 23 22 22 22 28 33 31 33 21 13 15 15 16 16 17 17 17
34 35 36 37 37 37 35 33 30 28 29 30 30 30 30 30 30 30 33 31 29 28 27 26 28 28 31 25 27 24 23 24 26 39 30 32 18 16 14 16 16 16 17 17 16
38 36 36 42 39 39 38 36 35 33 32 32 32 32 32 33 32 32 32 33 32 31 30 30 30 30 29 29 29 27 25 27 28 24 25 18 22 18 14 15 15 15 16 16 16
42 40 39 38 38 40 41 40 39 37 37 36 36 36 35 36 34 34 32 33 33 34 33 33 33 33 32 31 33 32 28 28 26 24 24 21 19 16 15 14 15 16 17 17 16
46 44 42 41 41 42 42 41 41 38 37 36 38 39 39 39 35 34 34 33 33 35 36 36 37 39 39 35 36 37 28 27 27 25 22 24 18 16 16 16 17 17 17 17 17

GFSSW_prec_cthk_303.txt.gz
RH
17 16 15 14 11 11 10 11 11 11 11 11 11 12 12 12 12 12 10 10 11 13 14 15 15 15 15 14 15 18 21 25 25 25 23 20 18 17 15 15 14 13 12 12 11
17 17 15 15 13 11 11 11 11 11 11 10 11 11 12 12 12 12 11 10 11 13 15 15 14 14 15 14 13 17 23 22 20 21 19 17 16 15 14 13 12 12 11 11 10
17 17 16 15 14 12 12 11 12 12 11 11 11 11 12 12 12 12 11 10 11 12 14 14 14 15 15 15 14 13 17 17 16 15 14 14 14 14 13 13 11 11 10 9 9
18 19 17 16 15 14 12 12 12 12 11 11 12 11 12 13 14 11 10 10 11 12 13 14 14 15 16 16 15 15 14 14 13 13 12 13 13 12 11 11 10 10 9 9 8
17 18 19 19 17 15 14 13 12 11 11 12 12 12 13 15 13 12 10 10 10 11 12 13 13 14 16 16 15 15 14 12 12 12 12 12 11 11 9 9 10 9 9 8 8
16 16 17 18 18 18 16 15 13 13 12 12 12 12 13 13 13 12 11 10 10 11 12 13 12 12 13 13 14 15 15 13 13 12 12 12 11 11 8 8 9 8 8 8 7
15 15 15 15 15 15 16 16 16 14 13 13 12 12 13 12 12 11 11 11 10 10 11 11 12 10 10 11 14 15 16 16 15 13 12 12 11 9 8 8 8 8 7 7 7
15 15 15 15 14 14 14 15 16 16 15 14 13 13 12 12 12 11 11 11 11 11 11 11 10 9 10 11 15 17 17 15 16 15 14 13 11 7 7 8 8 8 7 7 7
16 15 14 14 14 14 14 14 14 15 15 15 14 14 13 12 12 11 11 11 11 11 11 11 9 10 11 13 14 14 13 14 14 16 16 14 12 9 8 8 7 7 7 7 7
20 17 14 14 14 14 14 14 14 14 14 14 14 14 14 13 11 11 11 11 11 11 12 12 12 13 14 13 13 13 13 13 14 14 16 16 13 10 9 8 7 7 7 7 6
23 20 16 14 14 14 15 15 15 14 14 14 14 14 14 14 13 12 12 11 11 11 13 13 13 15 14 13 12 11 12 12 12 13 16 16 15 11 10 9 7 6 6 6 6
21 22 19 16 15 15 16 15 15 14 14 14 14 13 14 13 13 13 13 12 12 13 13 13 14 13 13 13 11 10 11 11 11 12 13 13 13 12 12 11 9 7 6 5 5
15 22 21 17 17 17 17 17 17 15 15 15 14 13 13 13 13 12 12 12 12 13 14 14 14 13 13 13 11 11 11 10 11 10 11 13 11 10 11 12 10 9 8 7 6
14 20 23 17 18 18 19 19 18 17 16 15 15 15 14 14 14 13 13 13 13 13 14 14 14 13 13 13 13 13 12 12 11 13 11 12 10 10 9 10 10 9 9 8 7
14 19 23 19 19 19 19 18 18 18 17 17 17 17 15 15 14 14 14 14 14 14 14 14 14 14 15 14 13 14 14 14 15 17 17 14 14 8 10 9 9 9 9 9 8
16 20 23 20 20 20 20 20 19 19 19 21 19 18 17 17 16 16 15 15 15 15 16 16 15 15 15 15 15 15 15 18 22 21 17 17 18 14 10 10 10 10 9 8 9
19 21 23 22 22 21 21 21 22 23 20 21 19 18 17 18 18 17 17 16 17 16 16 17 17 16 15 16 16 16 16 16 13 18 19 21 19 13 12 11 11 11 10 9 9
24 23 23 23 23 23 22 23 21 20 23 22 21 19 19 18 19 19 19 19 18 18 20 19 18 18 17 17 17 17 16 18 13 16 16 19 19 11 10 10 10 11 10 10 11
25 25 25 23 24 24 23 25 20 21 22 23 22 21 20 20 20 21 22 22 20 20 20 22 20 19 18 17 17 19 19 19 22 26 25 19 15 11 12 11 12 12 11 12 12
24 26 26 25 25 25 25 26 22 21 23 23 23 23 24 24 23 24 24 23 22 23 21 22 22 22 21 20 20 21 21 22 24 24 20 19 18 16 13 12 12 12 11 12 13
25 27 28 28 26 26 28 27 23 23 22 23 24 26 26 26 26 26 25 24 24 25 24 24 24 24 24 24 24 24 24 26 26 29 25 25 20 15 14 12 13 12 13 14 14
28 28 31 29 28 30 30 28 25 25 24 24 24 24 26 28 29 29 28 26 25 25 26 26 28 28 27 27 25 24 25 27 34 27 36 37 27 17 16 16 15 14 15 15 15
30 31 35 30 29 31 30 29 27 27 26 26 26 26 26 27 27 29 29 29 28 27 28 27 29 30 28 28 28 28 28 29 33 35 38 36 27 19 19 18 16 17 16 17 17
33 35 37 35 32 30 30 29 28 27 27 28 28 27 28 28 29 29 31 31 30 29 29 28 29 29 31 27 30 31 32 33 33 41 37 33 25 24 22 21 19 19 19 19 17
38 35 37 42 38 35 32 29 30 28 28 28 30 30 31 32 30 31 32 32 31 32 31 30 31 31 30 30 31 32 33 37 38 34 34 29 30 27 25 24 22 21 20 20 18
43 40 40 42 40 38 37 35 32 30 30 30 30 31 31 31 30 32 32 32 32 34 33 33 34 33 33 33 34 33 34 35 35 36 35 33 32 27 25 24 23 22 22 21 20
47 44 42 45 46 46 43 39 38 34 32 31 32 32 32 32 30 31 32 33 34 36 36 36 38 38 38 38 37 37 34 35 39 39 37 37 32 29 29 27 26 25 23 21 21